COSMOS 2492 (754)

Last updated on Tue Jul 01 2025 00:03:16 GMT+0000 (Coordinated Universal Time)

1 39620U 14012A 25181.39351215 -.00000070 00000+0 00000+0 0 9990 2 39620 65.4984 325.8719 0010602 323.0237 36.8981 2.13103273 87745
UTC large
Height (km)
Speed (km/s)
/
Latitude / Longitude
Inclination (degrees)
Orbital Period (minutes)
Azimuth
Elevation
Range (km)
Doppler Factor

Next 0 passes for location: London (51.5072 / 0.1276)

Sorry there are no passes over London.